Location: Falconara Alta
(43.6167°N, 13.4000°E)
Time: 16:26:12
(UTC+00:00)

Meteor 2-10 Rocket - Pass Details

Date: 09 April 2020
Orbit: 734 x 885 km, 81.2° (Epoch: 04 June)

Event Time Altitude Azimuth Distance (km) Brightness Sun altitude
Exits shadow 20:33:53 74° 22° (NNE) 827 3.6 -27.7°
Drops below altitude 10° 20:38:49 10° 11° (N) 2,412 6.5 -28.3°
Sets 20:41:16 0° 11° (NNE) 3,373 7.3 -28.6°
